Location: Hains Lake
(37.8540°N, 99.8578°W)
Time: 22:07:50
(UTC+00:00)

Explorer 7 - Pass Details

Date: 23 April 2021
Orbit: 484 x 677 km, 50.3° (Epoch: 13 May)

Event Time Altitude Azimuth Distance (km) Brightness Sun altitude
Rises 04:47:38 0° 305° (NW) 2,718 11.3 -33.3°
Reaches altitude 10° 04:50:35 10° 328° (NNW) 1,867 10.3 -33.6°
Enters shadow 04:52:59 16° 2° (N) 1,550 9.6 -33.9°
